[[{"header":{"parameterUnit":"m.s-1","parameterCategory":1,"la1":30.2991,"la2":30.254,"lo1":-89.0895,"lo2":-89.0444,"dy":0.0017,"dx":0.0017,"nx":28,"ny":28,"refTime":"2025-09-10T21:00:00:Z","depth":0,"parameterNumber":2,"parameterNumberName":"U-component_of_WINDS"},"data":[0,0,0,0,0,0,0,0,0,0,0,0,0,0,0,0,0,0,0,0,0,0,0,0,0,0,0,0,0,0,0,0,0,0,0,0,0,0,0,0,0,0,0,0,0,0,0,0,0,0,0,0,0,0,0,0,0,0,0.4133,0.4134,0,0.4246,0.4247,0.4249,0.4286,0.4285,0.4285,0.4284,0.4402,0.4406,0.4409,0,0,0,0,0,0,0,0,0,0,0,0,0,0.3949,0.3952,0.4133,0.4134,0.4136,0.4246,0.4247,0.4249,0.4286,0.4285,0.4285,0.4284,0.4401,0.4405,0.441,0,0,0,0,0,0,0,0,0,0,0,0,0,0.4042,0.3953,0.4132,0.4167,0.4172,0.4245,0.4247,0.4249,0.4286,0.4285,0.4285,0.4284,0.44,0.4405,0.441,0.4458,0,0,0.4427,0.4429,0,0,0,0,0,0,0,0,0.4037,0.4049,0.4161,0.4165,0.417,0.4251,0.4226,0.4319,0.4286,0.4243,0.4284,0.4284,0.4353,0.4362,0.4385,0.4464,0.4469,0.4427,0.443,0.4433,0.4434,0,0,0,0,0,0,0,0.403,0.4044,0.4178,0.4162,0.4168,0.4177,0.419,0.4244,0.43,0.4246,0.4249,0.4262,0.4355,0.4379,0.4388,0.4471,0.4427,0.4432,0.4435,0.4437,0.4592,0.4593,0,0,0,0,0,0,0.4018,0.4038,0.4174,0.4181,0.41,0.4181,0.4195,0.4226,0.43,0.4311,0.4263,0.4263,0.4371,0.4381,0.4392,0.4452,0.4433,0.4438,0.4441,0.4592,0.4593,0.4594,0,0,0,0,0,0,0.4013,0.4029,0.4169,0.4111,0.4129,0.4185,0.4219,0.4228,0.4253,0.4312,0.4323,0.4277,0.437,0.4385,0.4441,0.4457,0.444,0.4445,0.4591,0.4592,0.4593,0.4573,0,0,0,0,0,0,0.4008,0.4028,0.4047,0.4111,0.4132,0.4216,0.422,0.4231,0.4262,0.4264,0.4329,0.4339,0.4371,0.4433,0.4446,0.4464,0.4449,0.4589,0.4591,0.4593,0.4572,0.4573,0.4574,0,0,0,0,0,0.4001,0.4037,0.4048,0.4064,0.4157,0.4217,0.4229,0.4265,0.4263,0.4282,0.432,0.4337,0.4452,0.4438,0.4454,0.4473,0.4589,0.4591,0.4593,0.4572,0.4573,0.4574,0,0,0,0,0,0,0.3975,0.4046,0.4059,0.4116,0.416,0.4223,0.4249,0.4266,0.4312,0.4312,0.4355,0.4369,0.4422,0.4453,0.4436,0.4522,0.4521,0.4526,0.45,0.4502,0.4502,0.4494,0.4454,0,0,0,0,0,0.3976,0.4018,0.4079,0.4124,0.4145,0.4193,0.4221,0.4244,0.4292,0.4311,0.4353,0.4399,0.4445,0.4475,0.4522,0.4576,0.459,0.4597,0.4598,0.4598,0.4603,0.4632,0.4635,0.46,0.46,0.46,0,0,0.3978,0.4022,0.4047,0.4119,0.4156,0.4199,0.4209,0.4254,0.4286,0.4318,0.4373,0.4405,0.4459,0.4515,0.4541,0.4542,0.4615,0.4601,0.4601,0.4605,0.4634,0.4638,0.4641,0.4601,0.4601,0.4601,0,0,0.4004,0.4042,0.4083,0.4119,0.4174,0.4206,0.4215,0.4276,0.4298,0.4353,0.4377,0.4416,0.4496,0.4533,0.4562,0.4599,0.4615,0.4613,0.4617,0.4645,0.4648,0.4651,0.4663,0.4667,0.4616,0.4616,0.4616,0,0.4,0.4066,0.4102,0.4146,0.4177,0.4206,0.4247,0.428,0.4348,0.4368,0.4368,0.4467,0.4506,0.4569,0.4577,0.4601,0.4612,0.4606,0.4645,0.4648,0.4651,0.4663,0.4667,0.4616,0.4616,0.4616,0.4616,0,0.4058,0.4103,0.4129,0.4192,0.4226,0.4268,0.431,0.434,0.4359,0.439,0.4446,0.4493,0.4548,0.4565,0.4585,0.463,0.4629,0.4636,0.4636,0.4653,0.4665,0.467,0.4615,0.4615,0.4615,0.4615,0,0,0.4072,0.4153,0.4162,0.419,0.4251,0.4287,0.433,0.4383,0.4407,0.4452,0.4488,0.4553,0.456,0.4593,0.4617,0.4642,0.4666,0.4646,0.4648,0.4648,0.4717,0.4711,0.4716,0.4677,0.4678,0.4679,0.4712,0,0.4105,0.4183,0.4216,0.4278,0.4319,0.4346,0.4383,0.4425,0.4454,0.4493,0.4526,0.4571,0.4577,0.4596,0.4622,0.4658,0.4681,0.4656,0.4711,0.4713,0.4697,0.4722,0.4717,0.4746,0.4717,0.4718,0.4719,0,0.4155,0.4199,0.4265,0.4319,0.4338,0.4371,0.4421,0.4458,0.4505,0.4525,0.456,0.4583,0.4628,0.4624,0.4686,0.4668,0.4693,0.4714,0.4716,0.4722,0.4717,0.4729,0.4756,0.476,0.4727,0.4726,0.4726,0,0.4157,0.4233,0.4282,0.4305,0.437,0.4392,0.4421,0.4467,0.4496,0.454,0.4559,0.4607,0.4634,0.4671,0.4706,0.47,0.4764,0.4764,0.4781,0.478,0.4794,0.4793,0.4825,0.481,0.481,0.481,0.481,0,0.4191,0.423,0.4283,0.4313,0.4357,0.4394,0.4437,0.4467,0.4507,0.4543,0.457,0.4603,0.4647,0.4685,0.4713,0.4759,0.4772,0.4788,0.4795,0.4786,0.4784,0.4803,0.4801,0.4811,0.4811,0.481,0.481,0,0.4201,0.4239,0.4293,0.435,0.4365,0.4395,0.4443,0.4473,0.4503,0.4548,0.456,0.4607,0.4654,0.4692,0.4753,0.4772,0.482,0.4828,0.4804,0.4807,0.4822,0.482,0.4868,0.4876,0.4855,0.4855,0.4856,0,0.422,0.4251,0.431,0.4336,0.4363,0.4404,0.4433,0.447,0.4499,0.4554,0.4577,0.4625,0.4665,0.4738,0.4777,0.4824,0.4833,0.4846,0.484,0.4829,0.4832,0.483,0.4833,0.4847,0.4847,0.4847,0.4847,0,0.425,0.4266,0.4307,0.4354,0.4387,0.4426,0.4466,0.4485,0.4529,0.456,0.4607,0.4638,0.47,0.4747,0.4797,0.4826,0.4843,0.4848,0.4855,0.4846,0.483,0.4838,0.4805,0.4847,0.4847,0.4847,0.4847,0.4847,0.4265,0.4292,0.4337,0.4382,0.4415,0.445,0.448,0.4513,0.4553,0.4605,0.4625,0.4673,0.4717,0.4786,0.4815,0.4852,0.4855,0.4864,0.4867,0.4868,0.4866,0.4823,0.4862,0.4862,0.4862,0.4862,0.4862,0,0.4294,0.4324,0.4364,0.4418,0.4452,0.4465,0.4509,0.4536,0.4578,0.4618,0.4656,0.471,0.4755,0.4797,0.4844,0.4866,0.4875,0.4877,0.4875,0.4881,0.4862,0.4852,0.4868,0.4868,0.4868,0.4868,0.4868,0.4868,0.4314,0.4361,0.4382,0.4445,0.4475,0.4522,0.4545,0.4578,0.461,0.4667,0.4705,0.4731,0.4772,0.4821,0.4863,0.4874,0.489,0.4889,0.4903,0.4884,0.4883,0.4882,0.4872,0.4893,0.4893,0.4919,0.4919,0.4919]},{"header":{"parameterUnit":"m.s-1","parameterCategory":1,"la1":30.2991,"la2":30.254,"lo1":-89.0895,"lo2":-89.0444,"dy":0.0017,"dx":0.0017,"nx":28,"ny":28,"refTime":"2025-09-10T21:00:00:Z","depth":0,"parameterNumber":3,"parameterNumberName":"V-component_of_WINDS"},"data":[0,0,0,0,0,0,0,0,0,0,0,0,0,0,0,0,0,0,0,0,0,0,0,0,0,0,0,0,0,0,0,0,0,0,0,0,0,0,0,0,0,0,0,0,0,0,0,0,0,0,0,0,0,0,0,0,0,0,3.2772,3.2772,0,3.2737,3.2736,3.2736,3.269,3.2689,3.2689,3.2688,3.2651,3.2651,3.265,0,0,0,0,0,0,0,0,0,0,0,0,0,3.2797,3.2796,3.2772,3.2771,3.2771,3.2737,3.2736,3.2736,3.269,3.2689,3.2689,3.2688,3.2651,3.2651,3.265,0,0,0,0,0,0,0,0,0,0,0,0,0,3.2776,3.2796,3.2772,3.2744,3.2741,3.2737,3.2736,3.2736,3.2691,3.2689,3.2688,3.2687,3.2651,3.2651,3.265,3.267,0,0,3.2649,3.2649,0,0,0,0,0,0,0,0,3.2777,3.2775,3.2749,3.2746,3.2743,3.2717,3.2732,3.2714,3.2691,3.271,3.2688,3.2687,3.2674,3.2671,3.2667,3.2668,3.2667,3.2649,3.2649,3.2649,3.2648,0,0,0,0,0,0,0,3.2779,3.2777,3.2758,3.2748,3.2745,3.2733,3.2728,3.2728,3.2698,3.2708,3.2705,3.2701,3.2672,3.2668,3.2666,3.2666,3.2649,3.2649,3.2648,3.2648,3.2678,3.2679,0,0,0,0,0,0,3.2785,3.2778,3.2759,3.2757,3.2758,3.2733,3.2728,3.2726,3.2698,3.2693,3.2702,3.2699,3.2669,3.2667,3.2665,3.2683,3.2649,3.2648,3.2648,3.2677,3.2678,3.2679,0,0,0,0,0,0,3.2786,3.2784,3.276,3.2767,3.2763,3.2734,3.2732,3.2726,3.2722,3.2694,3.2688,3.2703,3.2668,3.2665,3.2668,3.2681,3.2648,3.2648,3.2676,3.2677,3.2679,3.2722,0,0,0,0,0,0,3.2786,3.2784,3.2792,3.2767,3.2763,3.2766,3.2733,3.2726,3.2721,3.2717,3.2694,3.2689,3.2667,3.2669,3.2668,3.268,3.2647,3.2674,3.2677,3.2678,3.2719,3.2724,3.2729,0,0,0,0,0,3.2787,3.2806,3.2793,3.2791,3.2772,3.2767,3.2764,3.2739,3.2723,3.273,3.2711,3.2689,3.2681,3.267,3.2668,3.268,3.2674,3.2676,3.2678,3.2716,3.2723,3.2729,0,0,0,0,0,0,3.2833,3.2802,3.2787,3.2798,3.2785,3.2759,3.2767,3.2748,3.2739,3.2735,3.2704,3.2699,3.2705,3.2694,3.2682,3.2696,3.2673,3.2676,3.2703,3.2709,3.2715,3.2716,3.2647,0,0,0,0,0,3.2844,3.2843,3.2816,3.2829,3.2823,3.2796,3.2793,3.2775,3.276,3.2754,3.2736,3.2722,3.2716,3.2713,3.2705,3.2718,3.271,3.2725,3.273,3.2734,3.2736,3.2738,3.2743,3.2687,3.2687,3.2687,0,0,3.2868,3.2851,3.2852,3.2837,3.2825,3.2823,3.2792,3.2792,3.279,3.2754,3.2755,3.2742,3.2724,3.2731,3.2733,3.2721,3.275,3.2737,3.2741,3.274,3.2741,3.2746,3.2751,3.2689,3.2689,3.2688,0,0,3.2908,3.2897,3.2904,3.2892,3.2874,3.2856,3.2858,3.2834,3.2824,3.2825,3.2797,3.2794,3.2785,3.2772,3.2764,3.2799,3.2777,3.2798,3.2824,3.2826,3.2831,3.2834,3.2844,3.2848,3.28,3.28,3.28,0,3.2939,3.2936,3.291,3.2911,3.2904,3.2873,3.2878,3.2868,3.2849,3.2844,3.2832,3.2817,3.2804,3.2805,3.2813,3.281,3.2809,3.2799,3.2832,3.2836,3.2839,3.2847,3.2851,3.2802,3.2802,3.2802,3.2801,0,3.2973,3.2971,3.2979,3.296,3.2955,3.2959,3.2932,3.293,3.2912,3.2895,3.2895,3.2877,3.2864,3.2864,3.2847,3.2863,3.2855,3.2838,3.2814,3.2847,3.2854,3.2857,3.2806,3.2805,3.2804,3.2803,0,0,3.304,3.3007,3.301,3.3,3.2977,3.2975,3.2976,3.2964,3.2961,3.2949,3.2947,3.294,3.2922,3.2914,3.2895,3.2898,3.2923,3.288,3.2879,3.2886,3.2935,3.2946,3.2951,3.2909,3.291,3.291,3.2936,0,3.3074,3.3074,3.3051,3.3058,3.3054,3.3023,3.3024,3.301,3.2994,3.2988,3.297,3.2963,3.2943,3.2937,3.2939,3.292,3.2932,3.2918,3.2905,3.2905,3.2908,3.2955,3.2967,3.2992,3.2939,3.2939,3.294,0,3.3113,3.3102,3.3108,3.3083,3.3081,3.3082,3.3068,3.3063,3.3046,3.3034,3.3024,3.3002,3.3,3.298,3.2975,3.2966,3.296,3.2949,3.295,3.2945,3.2923,3.2949,3.3,3.3003,3.2944,3.2944,3.2944,0,3.3157,3.3144,3.3146,3.3139,3.3111,3.3112,3.31,3.3081,3.3075,3.3062,3.3057,3.3045,3.3037,3.3027,3.3002,3.299,3.3,3.2978,3.2988,3.2988,3.2989,3.2989,3.3036,3.299,3.299,3.299,3.299,0,3.3195,3.3199,3.3165,3.3165,3.3168,3.3141,3.3145,3.313,3.3113,3.3109,3.3083,3.308,3.3048,3.3041,3.3022,3.3019,3.3017,3.3005,3.3,3.3006,3.3007,3.3,3.2996,3.2991,3.2991,3.299,3.299,0,3.3244,3.3221,3.322,3.3193,3.3187,3.319,3.3167,3.3165,3.3148,3.3143,3.314,3.3112,3.3102,3.3077,3.306,3.3047,3.3049,3.304,3.3054,3.305,3.306,3.3059,3.3103,3.3106,3.306,3.3061,3.3061,0,3.3268,3.327,3.3244,3.324,3.3229,3.3222,3.3215,3.3189,3.3182,3.3161,3.3162,3.315,3.3138,3.3123,3.3101,3.3087,3.3076,3.3093,3.3074,3.308,3.3073,3.3072,3.3071,3.3096,3.3097,3.3097,3.3098,0,3.3313,3.3301,3.3292,3.3279,3.3271,3.326,3.3246,3.3244,3.3214,3.3208,3.3197,3.3188,3.3171,3.3158,3.3141,3.3127,3.3106,3.3104,3.3105,3.311,3.3117,3.3111,3.3063,3.3102,3.3102,3.3102,3.3101,3.3101,3.3347,3.3347,3.3328,3.3318,3.3306,3.3294,3.329,3.3272,3.3263,3.3247,3.3232,3.3222,3.3203,3.3178,3.3166,3.3157,3.3146,3.3148,3.3148,3.3149,3.315,3.3121,3.3154,3.3154,3.3153,3.3153,3.3153,0,3.3388,3.3374,3.3366,3.3348,3.334,3.3323,3.3307,3.3301,3.3293,3.3277,3.3266,3.3252,3.324,3.3217,3.3201,3.3198,3.3188,3.3195,3.3194,3.319,3.3162,3.3161,3.3203,3.3203,3.3203,3.3203,3.3203,3.3203,3.3408,3.3405,3.3392,3.3382,3.3368,3.3359,3.3351,3.3339,3.3326,3.3312,3.3301,3.3287,3.3267,3.325,3.3237,3.323,3.3225,3.3234,3.3224,3.3198,3.3193,3.3188,3.3187,3.3234,3.3234,3.3253,3.3253,3.3253]}]]